Location: Sankt Anna
(58.3452°N, 16.7040°E)
Time: 11:45:17
(UTC+01:00)

ISS - Visible Passes

Search period start: 21 March 2019 00:00
Search period end: 31 March 2019 00:00
Orbit: 406 x 411 km, 51.6° (Epoch: 21 March)

Date Brightness Start Highest point End Pass type
(mag) Time Alt. Az. Time Alt. Az. Time Alt. Az.
23 Mar -1.3 20:24:46 10° SSW 20:25:05 11° SSW 20:25:05 11° SSW visible
24 Mar -1.8 19:34:24 10° S 19:36:10 14° SSE 19:36:30 14° SE visible
24 Mar -1.0 21:09:14 10° SW 21:09:16 10° SW 21:09:16 10° SW visible
25 Mar -2.2 20:18:25 10° SW 20:20:31 21° S 20:20:31 21° S visible
26 Mar -2.1 19:27:42 10° SSW 19:30:07 19° SSE 19:31:40 14° SE visible
26 Mar -1.6 21:03:14 10° WSW 21:04:24 17° SW 21:04:24 17° SW visible
27 Mar -2.5 20:12:17 10° SW 20:15:04 25° S 20:15:26 24° SSE visible
28 Mar -2.3 19:21:24 10° SW 19:24:05 23° S 19:26:23 12° ESE visible
28 Mar -2.0 20:57:20 10° WSW 20:59:07 21° SW 20:59:07 21° SW visible
29 Mar -2.4 20:06:15 10° WSW 20:09:02 25° S 20:10:01 22° SSE visible
30 Mar -2.4 19:15:14 10° SW 19:18:02 25° S 19:20:50 10° ESE visible
30 Mar -1.9 20:51:31 10° WSW 20:53:37 19° SSW 20:53:37 19° SSW visible
